| time (UTC) | temp F | wind direction | speed MPH | gust MPH | rain 1hr in | rain 24hr in | rain mn in | humidity % | barometer mb |
| 20260904203244 | 81 | 100 | 1.0 | 2.0 | 0.00 | 0.00 | 0.00 | 63 | 1041.2 |
| 20260904202242 | 79 | 103 | 1.0 | 1.0 | 0.00 | 0.00 | 0.00 | 70 | 1041.3 |
| 20260904201237 | 80 | 84 | 1.0 | 1.0 | 0.00 | 0.00 | 0.00 | 66 | 1041.3 |
| 20260904200232 | 82 | 93 | 2.0 | 3.0 | 0.00 | 0.00 | 0.00 | 65 | 1041.4 |
| 20260904195230 | 83 | 107 | 3.0 | 3.0 | 0.00 | 0.00 | 0.00 | 66 | 1041.8 |
| 20260904194230 | 82 | 294 | 5.0 | 6.0 | 0.00 | 0.00 | 0.00 | 65 | 1041.6 |
| 20260904193227 | 82 | 307 | 3.0 | 5.0 | 0.00 | 0.00 | 0.00 | 64 | 1042.0 |
| 20260904192223 | 79 | 304 | 4.0 | 5.0 | 0.00 | 0.00 | 0.00 | 69 | 1041.9 |
| 20260904191222 | 80 | 337 | 3.0 | 3.0 | 0.00 | 0.00 | 0.00 | 67 | 1042.0 |
| 20260904190220 | 81 | 171 | 4.0 | 6.0 | 0.00 | 0.00 | 0.00 | 63 | 1041.9 |
| 20260904185216 | 82 | 260 | 2.0 | 2.0 | 0.00 | 0.00 | 0.00 | 62 | 1042.3 |
| 20260904184211 | 81 | 60 | 2.0 | 2.0 | 0.00 | 0.00 | 0.00 | 65 | 1042.4 |
| 20260904183207 | 80 | 38 | 2.0 | 3.0 | 0.00 | 0.00 | 0.00 | 67 | 1042.6 |
| 20260904182203 | 81 | 219 | 3.0 | 5.0 | 0.00 | 0.00 | 0.00 | 64 | 1042.3 |
| 20260904181157 | 80 | 91 | 1.0 | 1.0 | 0.00 | 0.00 | 0.00 | 69 | 1042.5 |
| 20260904180154 | 80 | 58 | 2.0 | 2.0 | 0.00 | 0.00 | 0.00 | 69 | 1042.6 |
| 20260904175152 | 80 | 258 | 3.0 | 3.0 | 0.00 | 0.00 | 0.00 | 67 | 1042.7 |
| 20260904174149 | 82 | 265 | 4.0 | 5.0 | 0.00 | 0.00 | 0.00 | 66 | 1042.6 |
| 20260904173145 | 82 | 130 | 1.0 | 1.0 | 0.00 | 0.00 | 0.00 | 61 | 1042.7 |
| 20260904172141 | 80 | 158 | 2.0 | 2.0 | 0.00 | 0.00 | 0.00 | 65 | 1042.6 |
| 20260904171137 | 80 | 253 | 4.0 | 5.0 | 0.00 | 0.00 | 0.00 | 66 | 1042.7 |
| 20260904170135 | 82 | 345 | 4.0 | 5.0 | 0.00 | 0.00 | 0.00 | 65 | 1043.2 |
| 20260904165133 | 81 | 214 | 3.0 | 3.0 | 0.00 | 0.00 | 0.00 | 67 | 1042.6 |
| 20260904164129 | 80 | 283 | 4.0 | 5.0 | 0.00 | 0.00 | 0.00 | 67 | 1042.8 |
| 20260904163125 | 81 | 117 | 2.0 | 2.0 | 0.00 | 0.00 | 0.00 | 66 | 1042.8 |
| 20260904162125 | 82 | 269 | 4.0 | 6.0 | 0.00 | 0.00 | 0.00 | 65 | 1042.7 |
| 20260904161122 | 79 | 282 | 5.0 | 6.0 | 0.00 | 0.00 | 0.00 | 66 | 1042.7 |
| 20260904160119 | 81 | 100 | 1.0 | 1.0 | 0.00 | 0.00 | 0.00 | 66 | 1042.9 |
| 20260904155119 | 81 | 134 | 2.0 | 3.0 | 0.00 | 0.00 | 0.00 | 67 | 1043.1 |
| 20260904154119 | 79 | 107 | 0.0 | 1.0 | 0.00 | 0.00 | 0.00 | 72 | 1042.8 |
| 20260904153115 | 79 | 121 | 2.0 | 2.0 | 0.00 | 0.00 | 0.00 | 68 | 1043.2 |
| 20260904152112 | 79 | 126 | 2.0 | 2.0 | 0.00 | 0.00 | 0.00 | 70 | 1042.9 |
| 20260904151111 | 80 | 113 | 3.0 | 5.0 | 0.00 | 0.00 | 0.00 | 70 | 1042.7 |
| 20260904150108 | 78 | 6 | 3.0 | 3.0 | 0.00 | 0.00 | 0.00 | 76 | 1042.8 |
| 20260904145108 | 77 | 270 | 3.0 | 5.0 | 0.00 | 0.00 | 0.00 | 79 | 1043.1 |
| 20260904144105 | 76 | 148 | 3.0 | 3.0 | 0.00 | 0.00 | 0.00 | 82 | 1043.2 |
| 20260904143103 | 75 | 261 | 2.0 | 2.0 | 0.00 | 0.00 | 0.00 | 83 | 1043.5 |
| 20260904142059 | 76 | 99 | 1.0 | 1.0 | 0.00 | 0.00 | 0.00 | 85 | 1043.4 |
| 20260904141055 | 75 | 133 | 2.0 | 3.0 | 0.00 | 0.00 | 0.00 | 85 | 1043.4 |
| 20260904140051 | 76 | 130 | 2.0 | 2.0 | 0.00 | 0.00 | 0.00 | 83 | 1043.1 |
| 20260904135047 | 76 | 110 | 7.0 | 7.0 | 0.00 | 0.00 | 0.00 | 85 | 1043.1 |
| 20260904134042 | 75 | 89 | 0.0 | 0.0 | 0.00 | 0.00 | 0.00 | 86 | 1042.8 |
| 20260904133039 | 73 | 84 | 1.0 | 2.0 | 0.00 | 0.00 | 0.00 | 89 | 1042.9 |
| 20260904132039 | 73 | 70 | 2.0 | 2.0 | 0.00 | 0.00 | 0.00 | 90 | 1042.9 |
| 20260904131034 | 73 | 133 | 1.0 | 1.0 | 0.00 | 0.00 | 0.00 | 90 | 1042.9 |
| 20260904130035 | 74 | 359 | 2.0 | 2.0 | 0.00 | 0.00 | 0.00 | 89 | 1042.6 |
| 20260904125031 | 75 | 107 | 1.0 | 1.0 | 0.00 | 0.00 | 0.00 | 87 | 1043.1 |
| 20260904124028 | 72 | 106 | 0.0 | 0.0 | 0.00 | 0.00 | 0.00 | 92 | 1043.3 |
| 20260904123024 | 71 | 106 | 0.0 | 1.0 | 0.00 | 0.00 | 0.00 | 93 | 1043.3 |
| 20260904122019 | 68 | 106 | 0.0 | 1.0 | 0.00 | 0.00 | 0.00 | 95 | 1043.1 |
| 20260904121016 | 68 | 91 | 0.0 | 0.0 | 0.00 | 0.00 | 0.00 | 95 | 1043.3 |
| 20260904120014 | 66 | 93 | 0.0 | 0.0 | 0.00 | 0.00 | 0.00 | 95 | 1043.2 |
| 20260904115008 | 66 | 93 | 0.0 | 0.0 | 0.00 | 0.00 | 0.00 | 95 | 1043.3 |
| 20260904114004 | 66 | 92 | 0.0 | 0.0 | 0.00 | 0.00 | 0.00 | 95 | 1043.3 |
| 20260904113003 | 66 | 93 | 0.0 | 0.0 | 0.00 | 0.00 | 0.00 | 95 | 1043.3 |
| 20260904112000 | 65 | 93 | 0.0 | 0.0 | 0.00 | 0.00 | 0.00 | 95 | 1043.2 |
| 20260904110957 | 65 | 79 | 0.0 | 0.0 | 0.00 | 0.00 | 0.00 | 95 | 1042.9 |
| 20260904105952 | 65 | 90 | 0.0 | 0.0 | 0.00 | 0.00 | 0.00 | 95 | 1042.9 |
| 20260904104947 | 65 | 90 | 0.0 | 0.0 | 0.00 | 0.00 | 0.00 | 95 | 1042.7 |
| 20260904103944 | 65 | 90 | 0.0 | 0.0 | 0.00 | 0.00 | 0.00 | 95 | 1042.5 |
| 20260904102942 | 65 | 95 | 0.0 | 0.0 | 0.00 | 0.00 | 0.00 | 95 | 1042.6 |
| 20260904101938 | 66 | 95 | 0.0 | 0.0 | 0.00 | 0.00 | 0.00 | 95 | 1042.2 |
| 20260904100936 | 66 | 95 | 0.0 | 0.0 | 0.00 | 0.00 | 0.00 | 95 | 1042.3 |
| 20260904095932 | 66 | 95 | 0.0 | 0.0 | 0.00 | 0.00 | 0.00 | 95 | 1042.5 |
| 20260904094927 | 65 | 83 | 0.0 | 0.0 | 0.00 | 0.00 | 0.00 | 95 | 1042.5 |
| 20260904093924 | 65 | 83 | 0.0 | 0.0 | 0.00 | 0.00 | 0.00 | 95 | 1042.7 |
| 20260904092920 | 66 | 83 | 0.0 | 0.0 | 0.00 | 0.00 | 0.00 | 95 | 1042.6 |
| 20260904091919 | 66 | 82 | 0.0 | 0.0 | 0.00 | 0.00 | 0.00 | 95 | 1042.6 |
| 20260904090914 | 66 | 76 | 0.0 | 0.0 | 0.00 | 0.00 | 0.00 | 95 | 1042.3 |
| 20260904085911 | 66 | 86 | 0.0 | 0.0 | 0.00 | 0.00 | 0.00 | 95 | 1042.4 |
| 20260904084907 | 66 | 87 | 0.0 | 0.0 | 0.00 | 0.00 | 0.00 | 95 | 1042.2 |
| 20260904083904 | 66 | 86 | 0.0 | 0.0 | 0.00 | 0.00 | 0.00 | 95 | 1042.1 |
| 20260904082903 | 66 | 82 | 0.0 | 0.0 | 0.00 | 0.00 | 0.00 | 95 | 1042.2 |
| 20260904081857 | 67 | 96 | 0.0 | 0.0 | 0.00 | 0.00 | 0.00 | 95 | 1042.2 |
| 20260904053811 | 69 | 101 | 0.0 | 0.0 | 0.00 | 0.00 | 0.00 | 95 | 1041.8 |
| 20260904052807 | 69 | 103 | 0.0 | 0.0 | 0.00 | 0.00 | 0.00 | 95 | 1041.7 |
| 20260904051805 | 69 | 93 | 0.0 | 0.0 | 0.00 | 0.00 | 0.00 | 95 | 1041.7 |
| 20260904050801 | 69 | 93 | 0.0 | 0.0 | 0.00 | 0.00 | 0.00 | 95 | 1041.5 |
| 20260904045758 | 69 | 93 | 0.0 | 0.0 | 0.00 | 0.00 | 0.00 | 95 | 1041.4 |
| 20260904044753 | 69 | 93 | 0.0 | 0.0 | 0.00 | 0.00 | 0.00 | 95 | 1041.7 |
| 20260904043751 | 69 | 94 | 1.0 | 1.0 | 0.00 | 0.00 | 0.00 | 95 | 1042.0 |
| 20260904042749 | 69 | 93 | 0.0 | 0.0 | 0.00 | 0.00 | 0.00 | 95 | 1042.2 |
| 20260904041744 | 69 | 94 | 0.0 | 0.0 | 0.00 | 0.00 | 0.00 | 95 | 1041.9 |
| 20260904040742 | 70 | 94 | 0.0 | 0.0 | 0.00 | 0.00 | 0.00 | 95 | 1041.9 |
| 20260904035740 | 70 | 91 | 0.0 | 0.0 | 0.00 | 0.23 | 0.23 | 95 | 1042.1 |
| 20260904034739 | 70 | 88 | 0.0 | 0.0 | 0.00 | 0.23 | 0.23 | 95 | 1042.2 |
| 20260904033737 | 70 | 94 | 0.0 | 0.0 | 0.00 | 0.23 | 0.23 | 95 | 1042.1 |
| 20260904032735 | 70 | 93 | 1.0 | 1.0 | 0.00 | 0.23 | 0.23 | 95 | 1042.4 |
| 20260904031735 | 70 | 92 | 0.0 | 1.0 | 0.00 | 0.23 | 0.23 | 95 | 1042.4 |
| 20260904030732 | 70 | 92 | 0.0 | 0.0 | 0.00 | 0.23 | 0.23 | 95 | 1042.7 |
| 20260904025730 | 70 | 101 | 1.0 | 1.0 | 0.00 | 0.23 | 0.23 | 95 | 1042.3 |
| 20260904024726 | 70 | 91 | 0.0 | 0.0 | 0.00 | 0.23 | 0.23 | 95 | 1042.4 |
| 20260904023723 | 70 | 91 | 0.0 | 0.0 | 0.00 | 0.23 | 0.23 | 95 | 1042.4 |
| 20260904022724 | 71 | 91 | 0.0 | 0.0 | 0.00 | 0.23 | 0.23 | 95 | 1042.3 |
| 20260904021723 | 71 | 92 | 0.0 | 0.0 | 0.00 | 0.23 | 0.23 | 95 | 1042.2 |
| 20260904020719 | 71 | 101 | 0.0 | 0.0 | 0.00 | 0.23 | 0.23 | 95 | 1042.4 |
| 20260904015717 | 72 | 88 | 1.0 | 1.0 | 0.00 | 0.23 | 0.23 | 94 | 1042.6 |
| 20260904014717 | 73 | 75 | 2.0 | 3.0 | 0.00 | 0.23 | 0.23 | 91 | 1042.5 |
| 20260904013714 | 73 | 121 | 3.0 | 3.0 | 0.00 | 0.23 | 0.23 | 92 | 1042.7 |
| 20260904012711 | 73 | 78 | 1.0 | 1.0 | 0.00 | 0.23 | 0.23 | 93 | 1042.9 |
| 20260904011710 | 74 | 86 | 0.0 | 0.0 | 0.00 | 0.23 | 0.23 | 90 | 1042.8 |
| 20260904010706 | 75 | 78 | 1.0 | 2.0 | 0.00 | 0.23 | 0.23 | 92 | 1043.2 |
| 20260904005704 | 75 | 100 | 1.0 | 2.0 | 0.00 | 0.23 | 0.23 | 92 | 1042.9 |
| 20260904004700 | 74 | 154 | 4.0 | 5.0 | 0.00 | 0.23 | 0.23 | 94 | 1043.1 |
| 20260904003656 | 74 | 111 | 0.0 | 1.0 | 0.00 | 0.23 | 0.23 | 95 | 1042.8 |
| 20260904002654 | 74 | 105 | 1.0 | 1.0 | 0.00 | 0.23 | 0.23 | 95 | 1042.1 |
| 20260904001650 | 74 | 97 | 0.0 | 0.0 | 0.00 | 0.23 | 0.23 | 95 | 1042.1 |
| 20260904000651 | 74 | 85 | 0.0 | 0.0 | 0.00 | 0.23 | 0.23 | 95 | 1042.3 |
| 20260903235651 | 74 | 85 | 0.0 | 0.0 | 0.00 | 0.23 | 0.23 | 95 | 1041.9 |
| 20260903234648 | 74 | 86 | 1.0 | 1.0 | 0.00 | 0.23 | 0.23 | 95 | 1042.1 |
| 20260903233646 | 74 | 87 | 0.0 | 0.0 | 0.00 | 0.23 | 0.23 | 95 | 1042.2 |
| 20260903232641 | 75 | 94 | 0.0 | 0.0 | 0.00 | 0.23 | 0.23 | 95 | 1042.1 |
| 20260903231637 | 75 | 93 | 1.0 | 1.0 | 0.00 | 0.23 | 0.23 | 95 | 1042.0 |
| 20260903230633 | 75 | 93 | 0.0 | 1.0 | 0.00 | 0.23 | 0.23 | 95 | 1042.5 |
| 20260903225629 | 76 | 85 | 0.0 | 0.0 | 0.00 | 0.23 | 0.23 | 95 | 1042.0 |
| 20260903224627 | 77 | 89 | 0.0 | 0.0 | 0.00 | 0.23 | 0.23 | 93 | 1042.1 |
| 20260903223624 | 78 | 89 | 0.0 | 0.0 | 0.00 | 0.23 | 0.23 | 91 | 1042.2 |
| 20260903222623 | 79 | 87 | 0.0 | 0.0 | 0.00 | 0.23 | 0.23 | 89 | 1042.0 |
| 20260903221617 | 80 | 86 | 0.0 | 0.0 | 0.00 | 0.23 | 0.23 | 87 | 1041.9 |
| 20260903220614 | 82 | 84 | 0.0 | 0.0 | 0.00 | 0.23 | 0.23 | 83 | 1041.5 |
| 20260903215613 | 84 | 93 | 0.0 | 1.0 | 0.00 | 0.23 | 0.23 | 79 | 1041.5 |
| 20260903214613 | 83 | 101 | 1.0 | 1.0 | 0.00 | 0.23 | 0.23 | 82 | 1041.8 |
| 20260903213609 | 83 | 82 | 0.0 | 0.0 | 0.00 | 0.23 | 0.23 | 82 | 1042.0 |
| 20260903212606 | 81 | 99 | 0.0 | 0.0 | 0.00 | 0.23 | 0.23 | 85 | 1041.6 |
| 20260903211602 | 81 | 104 | 0.0 | 1.0 | 0.00 | 0.23 | 0.23 | 84 | 1041.4 |
| 20260903210600 | 82 | 83 | 0.0 | 1.0 | 0.00 | 0.23 | 0.23 | 83 | 1041.7 |
| 20260903205554 | 82 | 86 | 2.0 | 2.0 | 0.00 | 0.23 | 0.23 | 82 | 1041.6 |
| 20260903204551 | 81 | 90 | 1.0 | 1.0 | 0.00 | 0.23 | 0.23 | 82 | 1041.7 |